Home   Weather   Iqaluit   Past weeks

Flag for Canada Past Weather in Iqaluit, Nunavut, Canada — Yesterday and Last 2 Weeks

Now
48 °F

More clouds than sun.


Feels Like: 40 °F
Forecast: 44 / 56 °F
Wind: 25 mph from Northwest

Location: Iqaluit

Current Time: Aug 30, 2016 at 3:16:31 PM

Latest Report: Aug 30, 2016 at 2:00 PM


Visibility: 30 mi

Pressure: 29.85 "Hg

Humidity: 76%

Dew Point: 41 °F

Location of IqaluitLocation

Past Weather in Iqaluit — Graph

°F

Iqaluit Temperature Yesterday

Maximum temperature yesterday: 50 °F (at 10:00 AM)
Minimum temperature yesterday: 46 °F (at 5:00 AM)
Average temperature yesterday: 47 °F

High & Low Weather Summary for the Past Weeks

 TemperatureHumidityPressure
High68 °F (Aug 18, 3:00 PM)100% (Aug 17, 12:00 AM)30.20 "Hg (Aug 17, 12:00 AM)
Low37 °F (Aug 21, 10:00 AM)35% (Aug 18, 3:00 PM)29.34 "Hg (Aug 22, 2:00 PM)
Average46 °F85%29.81 "Hg
* Reported Aug 15 2:00 PM — Aug 30 2:00 PM, Iqaluit, Weather by CustomWeather, © 2016

Note: Actual official high and low records may vary slightly from our data, if they occured in-between our weather recording intervals... More about our weather records

Advertising

Iqaluit Weather History for the Previous 24 Hours

Scroll right to see more
 ConditionsComfort  
Time TempWeatherWind HumidityBarometerVisibility
2:00 PM
Tue, Aug 30
48 °FMore clouds than sun.25 mph76%29.85 "Hg30 mi
1:00 PM48 °FDrizzle. Mostly cloudy.25 mph82%29.87 "Hg20 mi
12:00 PM48 °FDrizzle. Overcast.24 mph82%29.88 "Hg30 mi
11:00 AM46 °FDrizzle. Mostly cloudy.25 mph87%29.90 "Hg20 mi
10:00 AM48 °FMore clouds than sun.23 mph82%29.90 "Hg30 mi
9:00 AM48 °FBroken clouds.24 mph76%29.91 "Hg30 mi
8:00 AM48 °FBroken clouds.24 mph76%29.92 "Hg30 mi
7:00 AM46 °FPartly sunny.21 mph82%29.93 "Hg30 mi
6:00 AM46 °FPassing clouds.20 mph82%29.94 "Hg30 mi
5:00 AM46 °FMostly cloudy.21 mph82%29.95 "Hg30 mi
4:00 AM46 °FDrizzle. Mostly cloudy.21 mph87%29.96 "Hg15 mi
3:00 AM45 °FDrizzle. Low clouds.20 mph93%29.97 "Hg12 mi
2:00 AM45 °FLow clouds.20 mph93%29.98 "Hg15 mi
1:00 AM45 °FOvercast.18 mph93%30.01 "Hg15 mi
12:54 AM45 °FOvercast.21 mph93%30.01 "Hg15 mi
12:00 AM46 °FMostly cloudy.22 mph82%30.02 "Hg15 mi
11:00 PM
Mon, Aug 29
46 °FPassing clouds.20 mph82%30.04 "Hg10 mi
10:00 PM46 °FPassing clouds.18 mph82%30.06 "Hg15 mi
9:00 PM46 °FPassing clouds.16 mph82%30.08 "Hg15 mi
8:49 PM46 °FPartly sunny.17 mph82%30.08 "Hg15 mi
8:00 PM46 °FPartly sunny.18 mph82%30.10 "Hg20 mi
7:00 PM46 °FPartly sunny.23 mph82%30.10 "Hg30 mi
6:00 PM46 °FPartly sunny.22 mph82%30.11 "Hg30 mi
5:00 PM48 °FPartly sunny.21 mph76%30.12 "Hg30 mi
4:00 PM48 °FPartly sunny.29 mph76%30.13 "Hg30 mi
3:00 PM50 °FPartly sunny.25 mph71%30.14 "Hg30 mi
Weather by CustomWeather, © 2016

See weather overviewHow to use our weather pages